CW4829 Weather Reports


Display with metric or nautical units.
time (UTC)temp
F
wind
direction
speed
MPH
gust
MPH
rain 1hr
in
rain 24hr
in
rain mn
in
humidity
%
barometer
mb
20260505230535 60 194 2.0 4.0 0.07 0.33 0.33 89 1004.4
20260505225527 61 194 1.0 3.0 0.06 0.31 0.31 89 1004.7
20260505225045 61 194 1.0 3.0 0.06 0.31 0.31 88 1004.7
20260505224554 61 266 1.0 2.0 0.06 0.30 0.30 88 1004.7
20260505224112 61 266 1.0 5.0 0.05 0.29 0.29 88 1004.7
20260505223524 61 246 1.0 6.0 0.05 0.28 0.28 88 1004.7
20260505223056 61 285 2.0 6.0 0.07 0.28 0.28 87 1004.7
20260505222548 61 234 2.0 5.0 0.08 0.28 0.28 87 1004.6
20260505222115 61 219 2.0 5.0 0.11 0.28 0.28 87 1004.6
20260505221522 61 232 2.0 5.0 0.20 0.27 0.27 86 1004.6
20260505221033 61 233 2.0 5.0 0.25 0.27 0.27 86 1004.6
20260505220557 61 209 2.0 6.0 0.25 0.26 0.26 85 1004.6
20260505220109 61 196 3.0 7.0 0.25 0.26 0.26 85 1004.6
20260505215557 61 226 2.0 7.0 0.25 0.25 0.25 84 1004.4
20260505214533 61 213 3.0 7.0 0.24 0.24 0.24 83 1004.4
20260505213524 61 202 2.0 6.0 0.23 0.23 0.23 81 1004.5
20260505212529 62 223 4.0 13.0 0.19 0.19 0.19 79 1004.2
20260505212047 63 181 6.0 15.0 0.13 0.13 0.13 76 1004.2
20260505211032 67 268 4.0 16.0 0.02 0.02 0.02 65 1003.2
20260505210522 67 192 3.0 14.0 0.01 0.01 0.01 64 1003.2
20260505210045 67 217 7.0 14.0 0.01 0.01 0.01 63 1003.2
20260505205556 67 186 2.0 9.0 0.00 0.00 0.00 64 1003.4
20260505205102 67 216 3.0 9.0 0.00 0.00 0.00 63 1003.4
20260505204607 68 202 4.0 7.0 0.00 0.00 0.00 62 1003.4
20260505204019 68 213 3.0 7.0 0.00 0.00 0.00 61 1003.7
20260505203531 68 185 2.0 10.0 0.00 0.00 0.00 60 1003.7
20260505203038 68 191 4.0 12.0 0.00 0.00 0.00 60 1003.7
20260505202557 68 167 5.0 12.0 0.00 0.00 0.00 60 1003.8
20260505201530 68 178 5.0 11.0 0.00 0.00 0.00 60 1003.8
20260505201054 68 207 3.0 19.0 0.00 0.00 0.00 60 1004.1
20260505200557 68 195 8.0 19.0 0.00 0.00 0.00 59 1004.1
20260505195539 68 262 4.0 13.0 0.00 0.00 0.00 60 1004.2
20260505195044 68 210 4.0 13.0 0.00 0.00 0.00 60 1004.2
20260505194602 68 151 5.0 13.0 0.00 0.00 0.00 60 1004.2
20260505194110 68 204 3.0 9.0 0.00 0.00 0.00 60 1004.4
20260505193621 68 193 4.0 9.0 0.00 0.00 0.00 60 1004.4
20260505193057 68 186 4.0 8.0 0.00 0.00 0.00 61 1004.4
20260505192541 68 211 4.0 10.0 0.00 0.00 0.00 60 1004.7
20260505192047 68 197 3.0 19.0 0.00 0.00 0.00 61 1004.7
20260505191031 68 250 5.0 10.0 0.00 0.00 0.00 62 1004.7
20260505190537 67 239 5.0 12.0 0.00 0.00 0.00 62 1004.7
20260505190057 67 213 5.0 12.0 0.00 0.00 0.00 62 1004.7
20260505185020 67 200 4.0 16.0 0.00 0.00 0.00 61 1004.7
20260505184550 67 211 5.0 16.0 0.00 0.00 0.00 62 1004.7
20260505184101 67 188 3.0 9.0 0.00 0.00 0.00 62 1004.8
20260505183604 67 196 4.0 9.0 0.00 0.00 0.00 62 1004.8
20260505182548 67 269 4.0 7.0 0.00 0.00 0.00 62 1004.8
20260505181524 68 223 3.0 11.0 0.00 0.00 0.00 62 1004.8
20260505181044 68 214 4.0 11.0 0.00 0.00 0.00 62 1004.8
20260505180531 68 283 3.0 10.0 0.00 0.00 0.00 62 1004.8
20260505180053 68 219 5.0 10.0 0.00 0.00 0.00 61 1004.8
20260505175609 68 196 4.0 13.0 0.00 0.00 0.00 61 1004.7
20260505175052 68 201 5.0 13.0 0.00 0.00 0.00 61 1004.7
20260505173528 69 170 5.0 11.0 0.00 0.00 0.00 56 1005.0
20260505173051 69 205 4.0 12.0 0.00 0.00 0.00 60 1005.0
20260505172537 69 193 5.0 12.0 0.00 0.00 0.00 59 1005.2
20260505172056 69 207 4.0 12.0 0.00 0.00 0.00 59 1005.2
20260505171605 69 248 3.0 14.0 0.00 0.00 0.00 59 1005.2
20260505170540 70 213 4.0 11.0 0.00 0.00 0.00 59 1005.2
20260505170059 70 186 3.0 11.0 0.00 0.00 0.00 59 1005.2
20260505165607 70 223 5.0 8.0 0.00 0.00 0.00 59 1005.0
20260505164539 70 254 5.0 9.0 0.00 0.00 0.00 59 1005.0
20260505164047 70 254 3.0 10.0 0.00 0.00 0.00 59 1005.2
20260505163553 70 144 5.0 10.0 0.00 0.00 0.00 59 1005.2
20260505163106 70 223 4.0 11.0 0.00 0.00 0.00 60 1005.2
20260505162034 69 223 6.0 13.0 0.00 0.00 0.00 60 1005.4
20260505161035 69 234 5.0 14.0 0.00 0.00 0.00 61 1005.5
20260505160554 68 194 6.0 14.0 0.00 0.00 0.00 61 1005.5
20260505153110 66 211 5.0 9.0 0.00 0.00 0.00 68 1005.4
20260505152532 66 200 5.0 12.0 0.00 0.00 0.00 69 1005.3
20260505152043 66 284 4.0 12.0 0.00 0.00 0.00 70 1005.3
20260505151559 65 129 5.0 11.0 0.00 0.00 0.00 70 1005.3
20260505151105 65 238 5.0 10.0 0.00 0.00 0.00 71 1004.8
20260505150551 64 191 4.0 13.0 0.00 0.00 0.00 72 1004.8
20260505140551 64 225 6.0 13.0 0.00 0.00 0.00 73 1004.3
20260505124041 60 247 3.0 9.0 0.00 0.00 0.00 79 1004.2
20260505123018 60 254 5.0 12.0 0.00 0.00 0.00 78 1004.2
20260505122542 60 200 4.0 12.0 0.00 0.00 0.00 78 1004.2
20260505122043 60 195 4.0 7.0 0.00 0.00 0.00 78 1004.2
20260505121558 60 248 2.0 7.0 0.00 0.00 0.00 79 1004.2
20260505121052 60 275 2.0 9.0 0.00 0.00 0.00 79 1002.7
20260505120553 60 298 4.0 11.0 0.00 0.00 0.00 79 1002.7
20260505115522 59 205 6.0 15.0 0.00 0.00 0.00 80 1002.1
20260505115039 59 201 5.0 15.0 0.00 0.00 0.00 79 1002.1
20260505114038 59 207 7.0 14.0 0.00 0.00 0.00 80 1002.2
20260505113551 59 190 7.0 16.0 0.00 0.00 0.00 80 1002.2
20260505112520 59 156 7.0 14.0 0.00 0.00 0.00 79 1002.6
20260505112047 59 209 8.0 14.0 0.00 0.00 0.00 79 1002.6
20260505111049 59 181 7.0 17.0 0.00 0.00 0.00 76 1003.1
20260505101531 61 240 2.0 7.0 0.00 0.00 0.00 67 1003.7
20260505101055 61 242 3.0 7.0 0.00 0.00 0.00 67 1003.7
20260505100615 62 202 3.0 7.0 0.00 0.00 0.00 66 1003.7
20260505100137 62 220 2.0 7.0 0.00 0.00 0.00 66 1003.7
20260505095550 62 207 2.0 5.0 0.00 0.00 0.00 65 1003.7
20260505095107 62 240 2.0 8.0 0.00 0.00 0.00 65 1003.7
20260505094614 62 216 3.0 8.0 0.00 0.00 0.00 65 1003.7
20260505094020 62 202 4.0 7.0 0.00 0.00 0.00 64 1003.4
20260505093541 62 215 2.0 7.0 0.00 0.00 0.00 64 1003.4
20260505093040 62 254 3.0 7.0 0.00 0.00 0.00 64 1003.4
20260505092032 63 268 3.0 6.0 0.00 0.00 0.00 63 1003.3
20260505091033 64 109 4.0 8.0 0.00 0.00 0.00 62 1003.4
20260505090029 64 221 5.0 11.0 0.00 0.00 0.00 61 1003.4
20260505085552 64 255 5.0 11.0 0.00 0.00 0.00 60 1003.2
20260505084541 64 205 3.0 8.0 0.00 0.00 0.00 60 1003.2
20260505083540 64 194 3.0 8.0 0.00 0.00 0.00 59 1002.9
20260505083054 64 173 3.0 12.0 0.00 0.00 0.00 59 1002.9
20260505082553 64 207 4.0 12.0 0.00 0.00 0.00 59 1002.6
20260505081520 65 244 5.0 12.0 0.00 0.00 0.00 59 1002.6
20260505081042 64 271 5.0 15.0 0.00 0.00 0.00 59 1002.3
20260505080554 64 197 5.0 11.0 0.00 0.00 0.00 59 1002.3
20260505080046 64 226 4.0 9.0 0.00 0.00 0.00 60 1002.3
20260505075527 64 192 3.0 10.0 0.00 0.00 0.00 60 1002.1
20260505074527 64 221 5.0 12.0 0.00 0.00 0.00 59 1002.1
20260505074040 64 182 6.0 12.0 0.00 0.00 0.00 60 1002.0
20260505073545 65 268 5.0 11.0 0.00 0.00 0.00 60 1002.0
20260505073100 65 111 5.0 13.0 0.00 0.00 0.00 60 1002.0
20260505072045 65 209 5.0 11.0 0.00 0.00 0.00 60 1001.9
20260505071054 65 213 5.0 12.0 0.00 0.00 0.00 60 1002.0
20260505070031 65 215 5.0 11.0 0.00 0.00 0.00 60 1002.0
20260505065023 65 218 6.0 12.0 0.00 0.00 0.00 60 1001.7
20260505064541 65 219 6.0 12.0 0.00 0.00 0.00 60 1001.7
20260505063515 66 182 5.0 12.0 0.00 0.00 0.00 57 1001.6
20260505063041 66 244 6.0 15.0 0.00 0.00 0.00 57 1001.6
20260505062028 66 213 7.0 15.0 0.00 0.00 0.00 57 1001.6
20260505061528 66 225 6.0 12.0 0.00 0.00 0.00 57 1001.6
20260505061042 66 217 6.0 12.0 0.00 0.00 0.00 57 1001.7
20260505060021 66 182 5.0 15.0 0.00 0.00 0.00 57 1001.7
20260505055540 66 180 7.0 15.0 0.00 0.00 0.00 56 1001.7
20260505055023 67 194 5.0 15.0 0.00 0.00 0.00 56 1001.7
20260505054529 67 195 6.0 11.0 0.00 0.00 0.00 55 1001.7
20260505054046 67 223 5.0 15.0 0.00 0.00 0.00 55 1001.7
20260505053517 67 233 6.0 15.0 0.00 0.00 0.00 55 1001.7
20260505053035 67 196 6.0 13.0 0.00 0.00 0.00 55 1001.7
20260505052527 67 251 8.0 13.0 0.00 0.00 0.00 55 1002.1
20260505052019 67 233 5.0 14.0 0.00 0.00 0.00 55 1002.1
20260505051524 67 183 5.0 14.0 0.00 0.00 0.00 55 1002.1
20260505051045 67 219 6.0 14.0 0.00 0.00 0.00 55 1002.1
20260505050605 67 205 8.0 14.0 0.00 0.00 0.00 55 1002.1
20260505041544 68 209 6.0 18.0 0.00 0.00 0.00 55 1002.2
20260505041029 68 211 5.0 16.0 0.00 0.00 0.00 55 1002.3
20260505040530 68 178 6.0 16.0 0.00 0.00 0.00 55 1002.3
20260505040046 68 192 6.0 11.0 0.00 0.00 0.00 54 1002.3
20260505035605 68 211 5.0 11.0 0.00 0.00 0.00 55 1002.4
20260505035133 68 173 5.0 14.0 0.00 0.00 0.00 55 1002.4
20260505034543 68 192 6.0 14.0 0.00 0.00 0.00 55 1002.4
20260505033518 68 225 7.0 14.0 0.00 0.00 0.00 55 1002.4
20260505033031 68 182 7.0 11.0 0.00 0.00 0.00 55 1002.4
20260505032548 68 194 5.0 12.0 0.00 0.00 0.00 55 1002.3
20260505032104 68 230 4.0 8.0 0.00 0.00 0.00 55 1002.3
20260505031031 67 222 4.0 7.0 0.00 0.00 0.00 55 1002.2
20260505030551 67 210 4.0 9.0 0.00 0.00 0.00 55 1002.2
20260505025604 67 203 4.0 10.0 0.00 0.00 0.00 55 1002.1
20260505025108 67 205 3.0 10.0 0.00 0.00 0.00 55 1002.1
20260505024608 67 211 4.0 10.0 0.00 0.00 0.00 55 1002.1
20260505024111 67 238 3.0 10.0 0.00 0.00 0.00 55 1002.1
20260505023540 68 196 3.0 10.0 0.00 0.00 0.00 54 1002.1
20260505023037 68 189 4.0 10.0 0.00 0.00 0.00 54 1002.1
20260505022032 68 182 5.0 8.0 0.00 0.00 0.00 54 1002.1
20260505021549 68 184 4.0 9.0 0.00 0.00 0.00 55 1002.1
20260505021059 68 180 4.0 9.0 0.00 0.00 0.00 55 1002.1
20260505020621 68 229 4.0 8.0 0.00 0.00 0.00 55 1002.1
20260505020105 68 180 2.0 7.0 0.00 0.00 0.00 55 1002.1
20260505015528 68 212 3.0 10.0 0.00 0.00 0.00 55 1002.1
20260505015036 67 224 3.0 7.0 0.00 0.00 0.00 55 1002.1
20260505014522 67 175 2.0 6.0 0.00 0.00 0.00 55 1002.1
20260505014023 67 229 3.0 6.0 0.00 0.00 0.00 56 1001.7
20260505013523 67 196 2.0 5.0 0.00 0.00 0.00 56 1001.7
20260505013040 67 219 1.0 4.0 0.00 0.00 0.00 55 1001.7
20260505012522 67 200 2.0 6.0 0.00 0.00 0.00 55 1001.6
20260505012038 67 200 1.0 6.0 0.00 0.00 0.00 55 1001.6
20260505011034 67 195 1.0 7.0 0.00 0.00 0.00 55 1001.6
20260505010556 67 202 2.0 5.0 0.00 0.00 0.00 55 1001.6
20260505005523 67 197 0.0 5.0 0.00 0.00 0.00 54 1001.7
20260505005042 67 201 2.0 7.0 0.00 0.00 0.00 54 1001.7
20260505004022 68 188 3.0 7.0 0.00 0.00 0.00 53 1001.7
20260505003529 68 203 3.0 7.0 0.00 0.00 0.00 52 1001.7
20260505002522 69 193 3.0 7.0 0.00 0.00 0.00 51 1001.6
20260505001521 69 211 3.0 7.0 0.00 0.00 0.00 50 1001.6
20260505001041 69 212 4.0 10.0 0.00 0.00 0.00 50 1001.7
20260505000602 69 203 6.0 10.0 0.00 0.00 0.00 50 1001.7
20260505000042 70 188 3.0 8.0 0.00 0.00 0.00 50 1001.7
20260504235026 70 216 3.0 8.0 0.00 0.00 0.00 51 1001.9
20260504234534 70 220 3.0 10.0 0.00 0.00 0.00 50 1001.9
20260504234058 70 215 4.0 10.0 0.00 0.00 0.00 50 1001.8
20260504233613 70 173 5.0 10.0 0.00 0.00 0.00 50 1001.8
20260504233111 70 212 4.0 10.0 0.00 0.00 0.00 50 1001.8
20260504232031 70 203 3.0 10.0 0.00 0.00 0.00 50 1002.1
20260504231556 70 225 4.0 11.0 0.00 0.00 0.00 50 1002.1